WetterOnline ( http://www.wetteronline.de )

Wetter aktuell Paderborn

Aktuelles Wetter: Bad Lippspringe (158m)

6-stündlich | Neueste Meldungen
Ortszeit Temperatur Wetter
Fr, 19.10. 8:00 6.9° C bewölkt
Fr, 19.10. 2:00 11.5° C bedeckt
Do, 18.10. 20:00 13.4° C bedeckt
Do, 18.10. 14:00 16.5° C bewölkt
Do, 18.10. 8:00 8.8° C bedeckt
Do, 18.10. 2:00 9.5° C wolkig
Mi, 17.10. 20:00 14.6° C bewölkt
Mi, 17.10. 14:00 23.8° C leicht bewölkt
Ortszeit Temperatur Wetter
Fr, 19.10. 8:30 6.5° C bewölkt
Fr, 19.10. 8:20 6.5° C bewölkt
Fr, 19.10. 8:10 6.7° C bedeckt
Fr, 19.10. 8:00 6.9° C bewölkt
Fr, 19.10. 7:50 6.9° C bewölkt
Fr, 19.10. 7:40 6.5° C bewölkt
Fr, 19.10. 7:30 6.7° C wolkig
Fr, 19.10. 7:00 7.1° C wolkig
Fr, 19.10. 6:30 7.1° C wolkenlos
Fr, 19.10. 6:00 7.6° C fast wolkenlos
Fr, 19.10. 5:30 9.4° C bewölkt
Ortszeit Relative Feuchte Sichtweite
Fr, 19.10. 8:00 98% 9 km
Fr, 19.10. 2:00 85% 18 km
Do, 18.10. 20:00 89% 14 km
Do, 18.10. 14:00 66% 35 km
Do, 18.10. 8:00 100% 2.1 km
Do, 18.10. 2:00 100% 5.0 km
Mi, 17.10. 20:00 79% 22 km
Mi, 17.10. 14:00 45% 40 km
Ortszeit Relative Feuchte Sichtweite
Fr, 19.10. 8:30 99% 5.0 km
Fr, 19.10. 8:20 99% -
Fr, 19.10. 8:10 99% -
Fr, 19.10. 8:00 98% 9 km
Fr, 19.10. 7:50 98% -
Fr, 19.10. 7:40 99% -
Fr, 19.10. 7:30 99% 5.0 km
Fr, 19.10. 7:00 99% 6 km
Fr, 19.10. 6:30 96% 6 km
Fr, 19.10. 6:00 96% 8 km
Fr, 19.10. 5:30 93% 13 km
Ortszeit Niederschlagsmenge Niederschlagsart
Fr, 19.10. 8:00 0.1 l/m2 in 12 Std. Sprühregen
Fr, 19.10. 2:00 0.1 l/m2 in 6 Std. Sprühregen
Do, 18.10. 20:00 0.0 l/m2 in 12 Std. -
Do, 18.10. 14:00 0.0 l/m2 in 6 Std. -
Do, 18.10. 8:00 0.0 l/m2 in 12 Std. -
Do, 18.10. 2:00 0.0 l/m2 in 6 Std. -
Mi, 17.10. 20:00 0.0 l/m2 in 12 Std. -
Mi, 17.10. 14:00 0.0 l/m2 in 6 Std. -
Ortszeit Niederschlagsmenge Niederschlagsart
Fr, 19.10. 8:30 0.0 l/m2 in 1 Std. -
Fr, 19.10. 8:20 keine Meldung -
Fr, 19.10. 8:10 keine Meldung -
Fr, 19.10. 8:00 0.0 l/m2 in 1 Std. Sprühregen
Fr, 19.10. 7:50 keine Meldung -
Fr, 19.10. 7:40 keine Meldung -
Fr, 19.10. 7:30 0.0 l/m2 in 1 Std. -
Fr, 19.10. 7:00 0.0 l/m2 in 1 Std. -
Fr, 19.10. 6:30 0.0 l/m2 in 1 Std. -
Fr, 19.10. 6:00 0.0 l/m2 in 1 Std. -
Fr, 19.10. 5:30 0.0 l/m2 in 1 Std. -
Ortszeit Stärke Spitze Richtung
km/h Bft. km/h Grad Sektor
Fr, 19.10. 8:00 4 1 29 220° SW
Fr, 19.10. 2:00 19 3 26 60° NO
Do, 18.10. 20:00 7 2 24 340° N
Do, 18.10. 14:00 6 1 19 340° N
Do, 18.10. 8:00 4 1 7 340° N
Do, 18.10. 2:00 4 1 7 100° O
Mi, 17.10. 20:00 4 1 14 40° NO
Mi, 17.10. 14:00 7 2 18 220° SW
Ortszeit Stärke Spitze Richtung
km/h Bft. km/h Grad Sektor
Fr, 19.10. 8:30 4 1 4 180° S
Fr, 19.10. 8:20 4 1 - 180° S
Fr, 19.10. 8:10 4 1 - 180° S
Fr, 19.10. 8:00 4 1 7 220° SW
Fr, 19.10. 7:50 4 1 - 220° SW
Fr, 19.10. 7:40 4 1 - 280° W
Fr, 19.10. 7:30 4 1 7 290° W
Fr, 19.10. 7:00 0 0 7 - -
Fr, 19.10. 6:30 2 1 6 130° SO
Fr, 19.10. 6:00 4 1 7 300° NW
Fr, 19.10. 5:30 4 1 7 230° SW
Ortszeit Untergrenze Bedeckung Gattung
total tief tief mittel hoch
Fr, 19.10. 8:00 1380 m 7/8 7/8 - - -
Fr, 19.10. 2:00 300 m 8/8 8/8 - - -
Do, 18.10. 20:00 450 m 8/8 8/8 - - -
Do, 18.10. 14:00 720 m 7/8 7/8 - - -
Do, 18.10. 8:00 120 m 8/8 8/8 - - -
Do, 18.10. 2:00 7500 m 8/8 0/8 - - -
Mi, 17.10. 20:00 6900 m 8/8 5/8 - - -
Mi, 17.10. 14:00 7200 m 5/8 0/8 - - -
Ortszeit Bedeckungsgrad in Achtel und Wolkenuntergrenze
Fr, 19.10. 8:30 7(1440m)
Fr, 19.10. 8:20 7(1440m)
Fr, 19.10. 8:10 8(1410m)
Fr, 19.10. 8:00 7(1380m)
Fr, 19.10. 7:50 7(1380m)
Fr, 19.10. 7:40 7(1410m)
Fr, 19.10. 7:30 6(1410m)
Fr, 19.10. 7:00 6(1380m)
Fr, 19.10. 6:30 1(1350m)
Fr, 19.10. 6:00 1(1500m)
Fr, 19.10. 5:30 7(1410m)
Ortszeit Luftdruck NN (hPa) Tendenz (hPa in 3 Std.)
Fr, 19.10. 8:00 1025 + 0,3
Fr, 19.10. 2:00 1025 - 0,4
Do, 18.10. 20:00 1024 + 1,0
Do, 18.10. 14:00 1023 - 0,3
Do, 18.10. 8:00 1023 + 0,9
Do, 18.10. 2:00 1021 + 0,5
Mi, 17.10. 20:00 1019 + 0,8
Mi, 17.10. 14:00 1018 - 0,8
Ortszeit Luftdruck NN (hPa) Tendenz (hPa in 3 Std.)
Fr, 19.10. 8:30 1025 + 0,3
Fr, 19.10. 8:20 1025 keine Meldung
Fr, 19.10. 8:10 1025 keine Meldung
Fr, 19.10. 8:00 1025 + 0,3
Fr, 19.10. 7:50 1025 keine Meldung
Fr, 19.10. 7:40 1025 keine Meldung
Fr, 19.10. 7:30 1025 + 0,3
Fr, 19.10. 7:00 1025 + 0,2
Fr, 19.10. 6:30 1025 + 0,4
Fr, 19.10. 6:00 1025 + 0,2
Fr, 19.10. 5:30 1025 0,0
Ortszeit Schneehöhe (cm)
Fr, 19.10. 8:00 0
Fr, 19.10. 2:00 0
Do, 18.10. 20:00 0
Do, 18.10. 14:00 0
Do, 18.10. 8:00 0
Do, 18.10. 2:00 0
Mi, 17.10. 20:00 0
Mi, 17.10. 14:00 0
Ortszeit Schneehöhe (cm)
Fr, 19.10. 8:30 0
Fr, 19.10. 8:20 0
Fr, 19.10. 8:10 0
Fr, 19.10. 8:00 0
Fr, 19.10. 7:50 0
Fr, 19.10. 7:40 0
Fr, 19.10. 7:30 0
Fr, 19.10. 7:00 0
Fr, 19.10. 6:30 0
Fr, 19.10. 6:00 0
Fr, 19.10. 5:30 0
Link zu dieser Seite / Seite empfehlen

Das Wetter in ...